{"data":{"norad_id":43172,"intl_designator":"2018-011D","name":"YAOGAN-30 05C","alt_names":[],"object_type":"PAYLOAD","status":"ACTIVE","operator":null,"country":"PRC","launch_date":"2018-01-25","launch_site_code":"XICLF","launch_vehicle":null,"mission":null,"orbit_class":"UNKNOWN","rcs_meters":null,"size_class":null,"mass_kg":null,"dimensions":null,"purposes":[],"wikipedia_slug":null,"has_3d_model":false,"image_url":null,"decayed_at":null,"tle_current":{"epoch":"2026-05-25T02:28:59.706912Z","epoch_age_seconds":73083,"freshness":"FRESH","line1":"1 43172U 18011D   26145.10346883  .00002470  00000+0  18398-3 0  9993","line2":"2 43172  34.9972 291.6417 0002515 242.5110 117.5342 15.02590149454610","mean_motion":15.02590149,"eccentricity":0.0002515,"inclination_deg":34.9972,"raan_deg":291.6417,"arg_perigee_deg":242.511,"mean_anomaly_deg":117.5342,"bstar":0.00018398,"rev_number":45461,"period_min":95.834516215772,"perigee_km":557.16819954266,"apogee_km":560.65753562606,"semimajor_km":6937.0498675844,"source":"CELESTRAK","updated_at":"2026-05-25T13:37:55.787851Z"}}}